Location: Arthez
(43.0833°N, 0.2500°W)
Time: 04:48:54
(UTC+00:00)

NOSS 3-1 (A) - Pass Details

Date: 04 June 2022
Orbit: 711 x 1501 km, 63.4° (Epoch: 21 May)

Event Time Altitude Azimuth Distance (km) Brightness Sun altitude
Rises 00:17:44 0° 310° (NW) 4,129 7.3 -24.4°
Reaches altitude 10° 00:21:11 10° 295° (WNW) 3,288 6.5 -24.3°
Maximum altitude 00:26:43 21° 252° (WSW) 2,728 5.6 -24.2°
Enters shadow 00:28:00 20° 240° (WSW) 2,797 5.5 -24.2°
